Weather History for PHMK - September, 2012

Change the Weather History Date:

Friday, September 14, 2012

  Actual Average Record
Temperature  
Mean Temperature 76 °F -  
Max Temperature 82 °F 85 °F 90 °F (1981)
Min Temperature 69 °F 71 °F 65 °F (1984)
Cooling Degree Days 10    
Growing Degree Days 26 (Base 50)    
Moisture  
Dew Point 62 °F    
Average Humidity 61    
Maximum Humidity 75    
Minimum Humidity 42    
Precipitation  
Precipitation 0.00 in - - ()
Sea Level Pressure  
Sea Level Pressure 30.05 in    
Wind  
Wind Speed 10 mph (NE)    
Max Wind Speed 23 mph    
Max Gust Speed 34 mph    
Visibility 10 miles    
Events      
Averages and records for this station are not official NWS values.
T = Trace of Precipitation, MM = Missing Value Source: NWS Daily Summary

Daily Weather History Graph

Daily Weather History Graph

Search for Another Location

Airport or City:

Trip Planner

Search our weather history database for the weather conditions in past years. The results will help you decide how hot, cold, wet, or windy it might be!

Date:

Astronomy

Sep. 14, 2012 Rise Set
Actual Time 6:15 AM HST 6:31 PM HST
Civil Twilight 5:53 AM HST 6:53 PM HST
Nautical Twilight 5:27 AM HST 7:19 PM HST
Astronomical Twilight 5:01 AM HST 7:45 PM HST
Moon 4:56 AM HST (9/14) 5:34 PM HST (9/14)
Length of Visible Light 13h 00m
Length of Day
12h 16m
Waning Crescent, 2% of the Moon is Illuminated
Sep 14
Waning Crescent
Sep 15
New
Sep 22
First Quarter
Sep 29
Full
Oct 7
Last Quarter

Hourly Weather History & Observations

Time (HST) Temp. Heat Index Dew Point Humidity Pressure Visibility Wind Dir Wind Speed Gust Speed Precip Events Conditions
12:54 AM 73.9 °F - 61.0 °F 64% 30.08 in 10.0 mi NNE 6.9 mph - N/A   Overcast
1:54 AM 73.9 °F - 63.0 °F 68% 30.07 in 10.0 mi NE 8.1 mph - N/A   Mostly Cloudy
2:54 AM 73.9 °F - 60.1 °F 62% 30.05 in 10.0 mi NNE 4.6 mph - N/A   Overcast
3:54 AM 73.9 °F - 62.1 °F 66% 30.05 in 10.0 mi NE 4.6 mph - N/A   Overcast
4:54 AM 73.0 °F - 62.1 °F 68% 30.04 in 10.0 mi NE 8.1 mph - N/A   Clear
5:54 AM 69.1 °F - 61.0 °F 75% 30.06 in 10.0 mi North 4.6 mph - N/A   Clear
6:54 AM 73.9 °F - 60.1 °F 62% 30.07 in 10.0 mi NE 5.8 mph - N/A   Clear
7:54 AM 79.0 °F - 59.0 °F 50% 30.08 in 10.0 mi NE 8.1 mph 16.1 mph N/A   Scattered Clouds
8:54 AM 81.0 °F 81.9 °F 62.1 °F 52% 30.09 in 10.0 mi NE 12.7 mph 21.9 mph N/A   Scattered Clouds
9:54 AM 81.0 °F 81.7 °F 61.0 °F 50% 30.09 in 10.0 mi NE 11.5 mph 23.0 mph N/A   Scattered Clouds
10:54 AM 82.0 °F 83.0 °F 62.1 °F 51% 30.08 in 10.0 mi NE 20.7 mph 34.5 mph N/A   Scattered Clouds
11:54 AM 80.1 °F 81.5 °F 63.0 °F 56% 30.06 in 10.0 mi NE 23.0 mph 32.2 mph N/A   Scattered Clouds
12:54 PM 82.0 °F 81.7 °F 57.0 °F 42% 30.04 in 10.0 mi NE 17.3 mph 29.9 mph N/A   Mostly Cloudy
1:54 PM 80.1 °F 81.9 °F 64.9 °F 60% 30.02 in 10.0 mi NNE 15.0 mph 26.5 mph N/A   Mostly Cloudy
2:54 PM 81.0 °F 82.2 °F 63.0 °F 54% 29.99 in 10.0 mi NE 15.0 mph 25.3 mph N/A   Scattered Clouds
3:54 PM 79.0 °F - 63.0 °F 58% 29.99 in 10.0 mi NE 16.1 mph 26.5 mph N/A   Scattered Clouds
4:54 PM 80.1 °F 80.7 °F 59.0 °F 48% 30.00 in 10.0 mi NE 15.0 mph 24.2 mph N/A   Scattered Clouds
5:54 PM 75.9 °F - 62.1 °F 62% 30.01 in 10.0 mi NE 13.8 mph 24.2 mph N/A   Scattered Clouds
6:54 PM 75.0 °F - 64.0 °F 69% 30.03 in 10.0 mi NE 8.1 mph 18.4 mph N/A   Overcast
7:54 PM 73.9 °F - 62.1 °F 66% 30.05 in 10.0 mi NE 8.1 mph - N/A   Mostly Cloudy
8:54 PM 75.0 °F - 61.0 °F 62% 30.06 in 10.0 mi NE 17.3 mph 21.9 mph N/A   Overcast
9:54 PM 73.9 °F - 64.0 °F 71% 30.08 in 10.0 mi East 10.4 mph - N/A   Scattered Clouds
10:54 PM 73.9 °F - 64.0 °F 71% 30.09 in 10.0 mi ENE 9.2 mph 16.1 mph N/A   Overcast
11:54 PM 73.9 °F - 63.0 °F 68% 30.08 in 10.0 mi ENE 8.1 mph - N/A   Overcast